Regional Weather Roundup
Issued by NWS Wakefield, VA

Home | Current Version | Previous Version | Graphics & Text | Print | Product List | Glossary On
Versions: 1 2 3 4 5 6 7 8 9 10 11 12 13 14 15 16 17 18 19 20 21 22 23 24 25 26 27
000
ASUS41 KAKQ 300415
RWRAKQ

REGIONAL WEATHER ROUNDUP
NATIONAL WEATHER SERVICE WAKEFIELD VA
1200 AM EDT SAT APR 30 2016

Note: "fair" indicates few or no clouds below 12,000 feet with no
significant weather and/or obstructions to visibility. * = Denotes
station may not report precipitation (e.g., rain,snow,etc.),
thunder or fog.

VAZ042-051-052>054-056-300500-
NORTHERN VIRGINIA

CITY           SKY/WX    TMP DP  RH WIND       PRES   REMARKS
WASH NATIONAL  CLOUDY    53  50  89 E7        30.12R
DULLES         CLOUDY    52  49  89 E3        30.12R
FORT BELVOIR   CLOUDY    54  50  87 CALM      30.12R
QUANTICO       CLOUDY    54  50  87 E6        30.12R
FREDERICKSBRG* CLOUDY    54  54 100 NE5       30.10R
STAFFORD*      CLOUDY    52  50  93 CALM      30.15R
WARRENTON      CLOUDY    54  49  85 CALM      30.10R HAZE
CULPEPER*      CLOUDY    53  53  99 CALM      30.12R FOG
MANASSAS*      CLOUDY    54  54 100 CALM      30.12R
LEESBURG*      CLOUDY    52  52 100 CALM      30.12R FOG
WINCHESTER     CLOUDY    52  50  93 CALM      30.11R FOG
FRONT ROYAL*   CLOUDY    52  50  93 CALM      30.10R
LURAY*         CLOUDY    52  52 100 CALM      30.10R FOG
$$

VAZ048-049-060>072-079>083-300500-
CENTRAL AND SOUTH CENTRAL VIRGINIA

CITY           SKY/WX    TMP DP  RH WIND       PRES   REMARKS
RICHMOND       CLOUDY    54  53  97 NE6       30.08S FOG
CHESTERFIELD*  CLOUDY    55  45  67 NE5       30.10R
PETERSBURG*    LGT RAIN  58  58 100 NE8       30.08S
HANOVER        CLOUDY    54  51  90 CALM      30.11R
TAPPAHANNOCK*  CLOUDY    54  54 100 N3        30.10R
QUINTON*       CLOUDY    54  53  98 MISG      30.08S FOG
CHARLOTTSVILLE CLOUDY    54  51  90 NE5       30.10R
GORDONSVILLE*  CLOUDY    53  53 100 NE3       30.10R FOG
ORANGE*        CLOUDY    54  54 100 CALM      30.12R FOG
LOUISA*        CLOUDY    57  55  94 E3        30.09R FOG
BUMPASS*       CLOUDY    53  52  97 CALM      30.10R
FARMVILLE*     CLOUDY    57  57 100 NE6       30.08R
CREWE*         CLOUDY    57  57 100 NE3       30.07R
FORT PICKETT*  NOT AVBL
CHASE CITY*    CLOUDY    58  57  94 NE3       30.06R
CLARKSVILLE*   MOCLDY    59  57  94 NE5       30.04R
SOUTH HILL*    CLOUDY    57  56  96 N6        30.11R
LAWRENCEVILLE* CLOUDY    58  56  96 CALM      30.07R
EMPORIA*       CLOUDY    57  54  88 N3        30.08R
$$

VAZ088>098-300500-
SOUTHEAST VIRGINIA

CITY           SKY/WX    TMP DP  RH WIND       PRES   REMARKS
NORFOLK        CLOUDY    55  52  89 NE9       30.06R
VIRGINIA BEACH DRIZZLE   57  51  80 NE10      30.05S FOG
NORFOLK NAVAL  CLOUDY    55  54  96 NE8       30.08R FOG
WEST POINT*    CLOUDY    54  52  94 CALM      30.10S
SALUDA*        CLOUDY    54  52  95 NE5       30.08R
NEWPORT NEWS   CLOUDY    56  53  90 N6        30.07R
LANGLEY AFB    CLOUDY    55  54  94 E8        30.06S
FORT EUSTIS    CLOUDY    55  55  99 N3        30.06R
WILLIAMSBURG*  CLOUDY    55  55 100 CALM      30.08S
HR EXEC AP*    CLOUDY    55  54  94 E6        30.08R
FRANKLIN*      CLOUDY    56  54  91 NE9       30.06S
US460-WAKEFLD  LGT RAIN  57  54  89 VRB6      30.07R FOG
$$

VAZ020-022-025-037-045-300500-
WEST CENTRAL AND SOUTHWEST VIRGINIA

CITY           SKY/WX    TMP DP  RH WIND       PRES   REMARKS
STAUNTON*      CLOUDY    55  55 100 N6        30.11R FOG
WAYNESBORO*    CLOUDY    54  51  90 MISG      30.09R
HOT SPRINGS VA FAIR      56  49  77 N5        30.10R
LYNCHBURG      CLOUDY    55  54  96 NE9       30.09R
DANVILLE       FAIR      60  32  34 NE9       30.04R
SOUTH BOSTON*  CLOUDY    59  57  95 NE6       30.05R
MARTINSVILLE   FAIR      60  56  87 NE5       30.07R
ROANOKE        CLOUDY    60  56  86 SE10      30.08R
BLACKSBURG     FAIR      60  55  82 E3        30.08S
DUBLIN*        FAIR      63  49  60 W3        30.07S
MARION*        FAIR      65  46  50 W8        30.10R
HILLSVILLE*    FAIR      64  50  60 NW5       30.07R
RICHLANDS*     FAIR      63  30  29 NW5       30.10S
WISE*          FAIR      63  39  42 N6        30.11S
ABINGDON*      FAIR      62  54  73 CALM      30.08R
$$

MDZ021>025-VAZ099-100-300500-
SOUTHERN MARYLAND AND THE DELMARVA PENINSULA

CITY           SKY/WX    TMP DP  RH WIND       PRES   REMARKS
PATUXENT RIVER CLOUDY    52  48  86 NE6       30.11R
BAY BRIDGE APT NOT AVBL
LEONARDTOWN    CLOUDY    50  46  87 CALM      30.12R
DOVER          CLOUDY    49  49 100 N8        30.11R
GEORGETOWN     CLOUDY    49  48  97 N7        30.11S
EASTON         CLOUDY   N/A N/A N/A NE6       30.15R
CAMBRIDGE      CLOUDY    50  48  93 CALM      30.09S
SALISBURY      CLOUDY    50  49  96 N7        30.09F
OCEAN CITY     LGT RAIN  50  49  96 NE10      30.09R
WALLOPS ISLAND CLOUDY    51  49  92 N8        30.08S
ACCOMACK*      DRIZZLE   50  41  71 NE3       30.07F
$$

NCZ012>017-030>032-300500-
NORTH CENTRAL AND EASTERN NORTH CAROLINA

CITY           SKY/WX    TMP DP  RH WIND       PRES   REMARKS
ROANOKE RAPIDS CLOUDY    55  55 100 NE3       30.04R
RALEIGH        PTCLDY    63  58  83 SE5       30.01R
ELIZABETH CITY CLOUDY    56  54  93 N12       30.05R
AHOSKIE*       CLOUDY    58  55  89 N7        30.04R
EDENTON*       CLOUDY    60  58  96 NE6       30.03S
CURRITUCK*     CLOUDY    55  55  97 NE9       30.05F FOG
KILL DEVIL HLS CLOUDY    55  54  96 N3        30.04R FOG
MANTEO         NOT AVBL
CAPE HATTERAS  CLOUDY    58  56  93 VRB7      30.02F
TARBORO*       FAIR      57  56  97 CALM      30.03R FOG
GOLDSBORO      CLEAR     61  61 100 E2        29.99R
WASHINGTON     CLEAR     58  56  94 CALM      30.01R
GREENVILLE     CLEAR     57  57 100 CALM      30.02F
NEW BERN       CLEAR     59  57  93 CALM      30.01S
WILMINGTON     CLEAR     65  61  87 E5        30.00F
$$

VAZ048-300500-
ELSEWHERE

CITY           SKY/WX    TMP DP  RH WIND       PRES   REMARKS
HARRISBURG PA  DRIZZLE   48  46  93 NE3       30.13R FOG
BALTIMORE      DRIZZLE   50  49  96 E6        30.12R FOG
ANNAPOLIS      CLOUDY    52  50  93 MISG      30.11S
ANDREWS AFB    CLOUDY    51  49  96 E6        30.10R
PHILADELPHIA   CLOUDY    49  39  68 NE8       30.15R
HENDERSON NC   PTCLDY    58  58 100 NE5       30.03R
GREENSBORO     PTCLDY    69  59  70 NE5       30.00R
ROCKY MOUNT    CLEAR     58  57  97 CALM      30.01S
$$

VAZ100-300500-
MARINE

STATION/POSITION TIME  TEMP    WIND        PRES    WAVE   SWELL
                       AIR SEA DIR/SP/G            HT/PER HT/PER
                 (UTC) (F)     (DEG/KT/KT) (MB)    (FT/S) (FT/S)
BRANDYWINE LGT   0300   49                   N/A
CAPE MAY NJ      0300   49 57                N/A
LEWES DE         0300   50 54                N/A
15NM E FENWICK I 0350   50 51              1018.3R   7/ 8
OCEAN-CITY-INLET 0300   51 54                N/A
WACHAPREAGUE VA  0300   52 58                N/A
THOMAS POINT MD  0400   51 57   40/  6/  7 1021.1R
GOOSES REEF MD   0400   53 57   80/  8/ 10 1020.5R   1/ 2
COVE POINT MD    0300   51                   N/A
SOLOMONS ISLAND  0300   52 59                N/A
BISHOPS HEAD MD  0300   52 58                N/A
PINEY POINT MD   0300           60/  4/  5   N/A
POTOMAC MD       0400   53 58   40/ 10/ 12 1018.2R   0
CAMBRIDGE MD     0300   52 60                N/A
LEWISETTA VA     0300   54 60                N/A
RAPPAHANNOCK LGT 0312           20/ 13/ 15 1018.9R
STINGRAY PT      0300   55 60   50/ 12/ 14 1018.5R   1/ 2
YORK RVR RNG VA  0300   56                   N/A
YORKTOWN VA      0300   56 62                N/A
JAMESTOWN VA     0400   55 67   10/  4/  8   N/A     0
DOMINION TERM VA 0300   57                   N/A
KIPTOPEKE VA     0300      59                N/A
CHES BAY BRIDGE  0300   54 60                N/A
CAPE HENRY VA    0300   53                   N/A
CHESAPEAKE LGHT  0300   53      30/ 17/ 18 1018.1R
WILLOUBY STN VA  0300   56                   N/A
CAPE HENRY BUOY  0312      56                N/A     5/ 8
CAPE CHARLES BUO 0326      56                N/A     5/ 8   3/ 8
OFFSHORE WE BUOY 0321      54                N/A     5/ 8   3/ 8
64NM E OF VA BCH 0350   52 53  360/ 14/ 16 1016.4R   6/ 8   5/ 8
DUCK PIER NC     0300   54 67                N/A
44100 DUCK FRF   0324      57                N/A     4/ 9   2/11
44056 DUCK FRF   0311      58                N/A     4/ 8   2/11
OREGON INLET NC  0300   55 63                N/A
HATTERAS NC      0300   60 71                N/A
DIAMOND SHLS NC  0350   57 75   20/ 14/ 16 1016.3F   4/ 8   3/ 8
CAPE LOOKOUT NC  0300   66      60/ 10/ 11 1015.6F
$$




USA.gov is the U.S. government's official web portal to all federal, state and local government web resources and services.